Location: Treviso
(45.6669°N, 12.2430°E)
Time: 08:27:48
(UTC+02:00)

ISS - Pass Details

Date: 10 May 2026
Orbit: 414 x 424 km, 51.6° (Epoch: 18 May)

Event Time Altitude Azimuth Distance (km) Brightness Sun altitude
Rises 00:54:03 0° 290° (WNW) 2,354 0.3 -26.7°
Reaches altitude 10° 00:56:19 10° 302° (WNW) 1,492 -0.6 -26.7°
Enters shadow 00:57:20 17° 313° (NW) 1,155 -1.1 -26.7°
